T2504 WABI-WAYY

Flight info

Callsign T2504
Flight time 0h 50m
Altitude 11000
Route TMK
Aircraft BE36/L-BDFGLORY/S

Departure

Time 2026-05-04 11:31
Airport Douw Aturure Airport (WABI)

Arrival

Time 2026-05-04 12:22
Airport Mozes Kilangin Airport (WAYY)
Time Latitude Longitude Altitude Speed Heading
2026-05-04 11:24 -3.36715 135.49764 25 ft 0 kts 167°
2026-05-04 11:27 -3.36714 135.49764 25 ft 0 kts 166°
2026-05-04 11:28 -3.36715 135.49764 25 ft 1 kts 171°
2026-05-04 11:28 -3.36746 135.49765 26 ft 4 kts 220°
2026-05-04 11:28 -3.36759 135.49709 25 ft 13 kts 247°
2026-05-04 11:29 -3.36768 135.49684 26 ft 2 kts 248°
2026-05-04 11:29 -3.36770 135.49681 26 ft 0 kts 248°
2026-05-04 11:29 -3.36772 135.49675 27 ft 5 kts 252°
2026-05-04 11:31 -3.36371 135.50868 1366 ft 116 kts 134°
2026-05-04 11:33 -3.42387 135.54944 1915 ft 152 kts 152°
2026-05-04 11:33 -3.43260 135.55570 2000 ft 156 kts 137°
2026-05-04 11:33 -3.44051 135.56281 2213 ft 151 kts 128°
2026-05-04 11:34 -3.44637 135.57141 2409 ft 149 kts 129°
2026-05-04 11:34 -3.45298 135.57932 2606 ft 148 kts 129°
2026-05-04 11:34 -3.45933 135.58715 2800 ft 145 kts 129°
2026-05-04 11:34 -3.46558 135.59494 2992 ft 143 kts 129°
2026-05-04 11:35 -3.47182 135.60274 3191 ft 143 kts 128°
2026-05-04 11:35 -3.47805 135.61053 3387 ft 143 kts 129°
2026-05-04 11:35 -3.48421 135.61822 3406 ft 142 kts 129°
2026-05-04 11:35 -3.49044 135.62600 3406 ft 143 kts 128°
2026-05-04 11:36 -3.49642 135.63354 3401 ft 133 kts 129°
2026-05-04 11:36 -3.50190 135.64039 3381 ft 121 kts 129°
2026-05-04 11:36 -3.50741 135.64724 3383 ft 137 kts 128°
2026-05-04 11:36 -3.51361 135.65497 3521 ft 147 kts 129°
2026-05-04 11:37 -3.52007 135.66305 3687 ft 150 kts 129°
2026-05-04 11:37 -3.52663 135.67124 3847 ft 152 kts 129°
2026-05-04 11:37 -3.53329 135.67954 4004 ft 154 kts 129°
2026-05-04 11:37 -3.54001 135.68792 4159 ft 154 kts 129°
2026-05-04 11:38 -3.54670 135.69629 4311 ft 154 kts 128°
2026-05-04 11:38 -3.55342 135.70468 4462 ft 154 kts 129°
2026-05-04 11:38 -3.56016 135.71309 4612 ft 155 kts 128°
2026-05-04 11:38 -3.56687 135.72142 4760 ft 154 kts 129°
2026-05-04 11:39 -3.57353 135.72966 4903 ft 154 kts 129°
2026-05-04 11:39 -3.58024 135.73795 5077 ft 151 kts 128°
2026-05-04 11:40 -3.61480 135.78061 6648 ft 114 kts 128°
2026-05-04 11:41 -3.61964 135.78665 6894 ft 107 kts 128°
2026-05-04 11:41 -3.62454 135.79254 6965 ft 117 kts 129°
2026-05-04 11:41 -3.63001 135.79913 6980 ft 128 kts 128°
2026-05-04 11:41 -3.63589 135.80625 6984 ft 138 kts 129°
2026-05-04 11:42 -3.64215 135.81388 6984 ft 145 kts 129°
2026-05-04 11:42 -3.64869 135.82188 6980 ft 150 kts 129°
2026-05-04 11:42 -3.65537 135.83001 6981 ft 152 kts 129°
2026-05-04 11:42 -3.66212 135.83823 6980 ft 152 kts 129°
2026-05-04 11:43 -3.66876 135.84635 6981 ft 152 kts 129°
2026-05-04 11:43 -3.67547 135.85459 6981 ft 152 kts 129°
2026-05-04 11:43 -3.68219 135.86277 6991 ft 152 kts 129°
2026-05-04 11:43 -3.68876 135.87081 7091 ft 147 kts 128°
2026-05-04 11:44 -3.69520 135.87865 7187 ft 145 kts 129°
2026-05-04 11:44 -3.70153 135.88636 7281 ft 143 kts 129°
2026-05-04 11:44 -3.70782 135.89402 7378 ft 142 kts 129°
2026-05-04 11:44 -3.71398 135.90151 7566 ft 132 kts 129°
2026-05-04 11:45 -3.71917 135.90779 7954 ft 103 kts 128°
2026-05-04 11:45 -3.72345 135.91288 8133 ft 89 kts 128°
2026-05-04 11:45 -3.72714 135.91758 8157 ft 84 kts 109°
2026-05-04 11:45 -3.72869 135.92321 8158 ft 83 kts 99°
2026-05-04 11:46 -3.72996 135.92900 8120 ft 87 kts 115°
2026-05-04 11:46 -3.73213 135.93146 8102 ft 0 kts 137°
2026-05-04 11:46 -3.73422 135.93401 9409 ft 144 kts 125°
2026-05-04 11:46 -3.73996 135.94099 9341 ft 117 kts 131°
2026-05-04 11:47 -3.74323 135.94804 9141 ft 109 kts 108°
2026-05-04 11:47 -3.74519 135.95520 8977 ft 107 kts 103°
2026-05-04 11:47 -3.74792 135.96266 8691 ft 117 kts 117°
2026-05-04 11:47 -3.75137 135.96905 8796 ft 92 kts 108°
2026-05-04 11:48 -3.75354 135.97473 8706 ft 91 kts 110°
2026-05-04 11:48 -3.75582 135.98068 8633 ft 88 kts 109°
2026-05-04 11:48 -3.75815 135.98687 8325 ft 114 kts 111°
2026-05-04 11:48 -3.76099 135.99423 8314 ft 111 kts 112°
2026-05-04 11:49 -3.76586 136.00015 8319 ft 108 kts 166°
2026-05-04 11:49 -3.77203 136.00192 8045 ft 72 kts 66°
2026-05-04 11:49 -3.77302 136.00402 4909 ft 117 kts 89°
2026-05-04 11:49 -3.77052 136.00661 3871 ft 0 kts 70°
2026-05-04 11:50 -3.77186 136.00424 3871 ft 0 kts 270°
2026-05-04 11:50 -3.77725 136.00222 4279 ft 97 kts 163°
2026-05-04 11:50 -3.78311 136.00623 4344 ft 115 kts 135°
2026-05-04 11:50 -3.78770 136.01344 4447 ft 135 kts 111°
2026-05-04 11:51 -3.79052 136.02293 4554 ft 149 kts 104°
2026-05-04 11:51 -3.79316 136.03287 4770 ft 149 kts 109°
2026-05-04 11:51 -3.79765 136.04229 4954 ft 152 kts 124°
2026-05-04 11:51 -3.80413 136.05061 5115 ft 152 kts 133°
2026-05-04 11:52 -3.81144 136.05823 5256 ft 152 kts 127°
2026-05-04 11:52 -3.81693 136.06742 5374 ft 154 kts 117°
2026-05-04 11:52 -3.82091 136.07731 5534 ft 152 kts 111°
2026-05-04 11:52 -3.82529 136.08698 5648 ft 154 kts 120°
2026-05-04 11:53 -3.83059 136.09638 5706 ft 156 kts 112°
2026-05-04 11:53 -3.83413 136.10652 5864 ft 152 kts 110°
2026-05-04 11:53 -3.83813 136.11614 6078 ft 144 kts 113°
2026-05-04 11:53 -3.84232 136.12511 6245 ft 143 kts 117°
2026-05-04 11:55 -3.86971 136.17686 7498 ft 102 kts 146°
2026-05-04 11:55 -3.87547 136.18028 7725 ft 91 kts 153°
2026-05-04 11:56 -3.88109 136.18230 7840 ft 86 kts 161°
2026-05-04 11:56 -3.88711 136.18307 7818 ft 96 kts 175°
2026-05-04 11:56 -3.89457 136.18322 7760 ft 119 kts 182°
2026-05-04 11:56 -3.90403 136.18380 7716 ft 136 kts 160°
2026-05-04 11:57 -3.91227 136.18875 7856 ft 143 kts 130°
2026-05-04 11:57 -3.91616 136.19756 8096 ft 141 kts 105°
2026-05-04 11:57 -3.91901 136.20742 8074 ft 155 kts 101°
2026-05-04 11:57 -3.92079 136.21774 8034 ft 149 kts 99°
2026-05-04 11:58 -3.92270 136.22769 7897 ft 145 kts 97°
2026-05-04 11:58 -3.92223 136.23807 7627 ft 148 kts 83°
2026-05-04 11:58 -3.92204 136.24779 7654 ft 135 kts 95°
2026-05-04 11:58 -3.92366 136.25671 7666 ft 128 kts 108°
2026-05-04 11:59 -3.92781 136.26393 7712 ft 119 kts 129°
2026-05-04 11:59 -3.93365 136.26959 7717 ft 113 kts 143°
2026-05-04 11:59 -3.94019 136.27401 7663 ft 116 kts 149°
2026-05-04 11:59 -3.94720 136.27781 7686 ft 113 kts 156°
2026-05-04 12:00 -3.95219 136.27942 7636 ft 116 kts 162°
2026-05-04 12:00 -3.96253 136.28221 7592 ft 114 kts 168°
2026-05-04 12:00 -3.96775 136.28345 7553 ft 114 kts 167°
2026-05-04 12:00 -3.97500 136.28516 7656 ft 103 kts 168°
2026-05-04 12:01 -3.98214 136.28702 7866 ft 109 kts 160°
2026-05-04 12:01 -3.98941 136.28994 8043 ft 118 kts 163°
2026-05-04 12:02 -4.04654 136.30519 8577 ft 166 kts 162°
2026-05-04 12:03 -4.05764 136.30878 8601 ft 168 kts 158°
2026-05-04 12:03 -4.06845 136.31361 8637 ft 168 kts 151°
2026-05-04 12:03 -4.07796 136.32036 8701 ft 167 kts 140°
2026-05-04 12:03 -4.08694 136.32784 8744 ft 168 kts 139°
2026-05-04 12:04 -4.09589 136.33525 8827 ft 166 kts 140°
2026-05-04 12:04 -4.10509 136.34230 8854 ft 168 kts 142°
2026-05-04 12:04 -4.11426 136.34956 8889 ft 167 kts 140°
2026-05-04 12:04 -4.12297 136.35716 8916 ft 167 kts 133°
2026-05-04 12:05 -4.13105 136.36563 8880 ft 168 kts 131°
2026-05-04 12:05 -4.13862 136.37456 8890 ft 167 kts 131°
2026-05-04 12:05 -4.14650 136.38306 8853 ft 167 kts 130°
2026-05-04 12:05 -4.15374 136.39214 8763 ft 166 kts 128°
2026-05-04 12:06 -4.16155 136.40072 8608 ft 168 kts 135°
2026-05-04 12:06 -4.16936 136.40941 8463 ft 168 kts 126°
2026-05-04 12:06 -4.17614 136.41884 8428 ft 165 kts 123°
2026-05-04 12:06 -4.18295 136.42808 8390 ft 165 kts 131°
2026-05-04 12:07 -4.19095 136.43653 8289 ft 168 kts 133°
2026-05-04 12:07 -4.19906 136.44475 8338 ft 163 kts 137°
2026-05-04 12:07 -4.20740 136.45226 8273 ft 166 kts 137°
2026-05-04 12:07 -4.21601 136.46033 8218 ft 167 kts 134°
2026-05-04 12:08 -4.22374 136.46858 8247 ft 163 kts 131°
2026-05-04 12:08 -4.23114 136.47721 8239 ft 164 kts 129°
2026-05-04 12:08 -4.23813 136.48560 8197 ft 165 kts 132°
2026-05-04 12:08 -4.24644 136.49414 8149 ft 165 kts 135°
2026-05-04 12:09 -4.25454 136.50227 8138 ft 164 kts 130°
2026-05-04 12:09 -4.26176 136.51116 8103 ft 165 kts 130°
2026-05-04 12:09 -4.26949 136.51964 8097 ft 164 kts 133°
2026-05-04 12:09 -4.27747 136.52783 8082 ft 165 kts 133°
2026-05-04 12:10 -4.28567 136.53584 8063 ft 165 kts 141°
2026-05-04 12:10 -4.29522 136.54238 7986 ft 168 kts 142°
2026-05-04 12:10 -4.30503 136.54937 7756 ft 174 kts 145°
2026-05-04 12:10 -4.31461 136.55615 7397 ft 168 kts 141°
2026-05-04 12:11 -4.32382 136.56358 6918 ft 171 kts 141°
2026-05-04 12:11 -4.33285 136.57104 6569 ft 166 kts 138°
2026-05-04 12:11 -4.34139 136.57860 6161 ft 170 kts 137°
2026-05-04 12:11 -4.35022 136.58711 5983 ft 176 kts 131°
2026-05-04 12:12 -4.35872 136.59624 5667 ft 182 kts 135°
2026-05-04 12:12 -4.36785 136.60436 5696 ft 171 kts 140°
2026-05-04 12:12 -4.37739 136.61170 5558 ft 173 kts 143°
2026-05-04 12:12 -4.38674 136.61918 5406 ft 174 kts 133°
2026-05-04 12:13 -4.39406 136.62899 5214 ft 175 kts 123°
2026-05-04 12:14 -4.44659 136.69368 3599 ft 171 kts 139°
2026-05-04 12:15 -4.45622 136.70049 3508 ft 167 kts 147°
2026-05-04 12:15 -4.46536 136.70761 3383 ft 167 kts 137°
2026-05-04 12:15 -4.47423 136.71517 3253 ft 167 kts 144°
2026-05-04 12:15 -4.48420 136.71968 3544 ft 133 kts 165°
2026-05-04 12:16 -4.49303 136.72221 3688 ft 133 kts 163°
2026-05-04 12:16 -4.50256 136.72342 3712 ft 140 kts 178°
2026-05-04 12:16 -4.51191 136.72461 3864 ft 134 kts 160°
2026-05-04 12:16 -4.51956 136.72916 4064 ft 128 kts 140°
2026-05-04 12:17 -4.52629 136.73629 3761 ft 156 kts 128°
2026-05-04 12:17 -4.53277 136.74563 3454 ft 170 kts 121°
2026-05-04 12:17 -4.53881 136.75616 3135 ft 177 kts 117°
2026-05-04 12:17 -4.54375 136.76744 2899 ft 177 kts 109°
2026-05-04 12:18 -4.54836 136.77925 2475 ft 183 kts 113°
2026-05-04 12:18 -4.55306 136.79062 1921 ft 173 kts 112°
2026-05-04 12:18 -4.55733 136.80181 1203 ft 170 kts 106°
2026-05-04 12:18 -4.55860 136.81273 978 ft 148 kts 90°
2026-05-04 12:19 -4.55761 136.82317 758 ft 153 kts 81°
2026-05-04 12:19 -4.55602 136.83374 583 ft 152 kts 85°
2026-05-04 12:19 -4.55537 136.84420 476 ft 149 kts 89°
2026-05-04 12:19 -4.55307 136.85381 518 ft 140 kts 69°
2026-05-04 12:20 -4.54925 136.86259 509 ft 138 kts 64°
2026-05-04 12:20 -4.54537 136.87065 534 ft 134 kts 62°
2026-05-04 12:20 -4.53921 136.87772 553 ft 144 kts 39°
2026-05-04 12:20 -4.52957 136.88303 446 ft 168 kts 41°
2026-05-04 12:21 -4.53022 136.89271 445 ft 149 kts 109°
2026-05-04 12:21 -4.53157 136.90203 365 ft 121 kts 105°
2026-05-04 12:21 -4.53684 136.90451 376 ft 104 kts 243°
2026-05-04 12:21 -4.53566 136.89723 159 ft 98 kts 296°
2026-05-04 12:22 -4.53284 136.89238 102 ft 64 kts 302°
2026-05-04 12:22 -4.53098 136.88942 102 ft 41 kts 301°
2026-05-04 12:22 -4.52966 136.88727 104 ft 32 kts 302°
2026-05-04 12:22 -4.52856 136.88558 105 ft 26 kts 303°
2026-05-04 12:23 -4.52769 136.88408 106 ft 25 kts 301°
2026-05-04 12:23 -4.52670 136.88260 105 ft 27 kts 306°
2026-05-04 12:23 -4.52567 136.88093 106 ft 27 kts 299°
2026-05-04 12:23 -4.52482 136.87942 105 ft 23 kts 306°
2026-05-04 12:24 -4.52474 136.87819 107 ft 18 kts 223°
2026-05-04 12:24 -4.52566 136.87754 107 ft 15 kts 207°
2026-05-04 12:24 -4.52627 136.87755 107 ft 8 kts 108°
2026-05-04 12:24 -4.52636 136.87801 107 ft 6 kts 67°
2026-05-04 12:25 -4.52619 136.87818 107 ft 0 kts 26°